Spearfish, SD

8:58 PM MST on February 24, 2017 (GMT -0700)
Black Hills-Ice

Weather History for KSPF - May, 2013

Change the Weather History Date:

Thursday, May 9, 2013

  Actual Average (KEFC) Record (KEFC)
Temperature  
Mean Temperature 50 °F -  
Max Temperature 62 °F 69 °F 87 °F (1987)
Min Temperature 39 °F 40 °F 24 °F (1981)
Degree Days  
Heating Degree Days 14    
Moisture  
Dew Point 39 °F    
Average Humidity 69    
Maximum Humidity 93    
Minimum Humidity 45    
Precipitation  
Precipitation 0.02 in - - ()
Sea Level Pressure  
Sea Level Pressure 30.16 in    
Wind  
Wind Speed 8 mph (ESE)    
Max Wind Speed 18 mph    
Max Gust Speed 22 mph    
Visibility 10 miles    
Events Rain    
Averages and records for this station are not official NWS values.
T = Trace of Precipitation, MM = Missing Value Source: NWS Daily Summary

Daily Weather History Graph

Daily Weather History Graph

Search for Another Location

Airport or City:

Trip Planner

Search our weather history database for the weather conditions in past years. The results will help you decide how hot, cold, wet, or windy it might be!

Date:

Astronomy

May. 09, 2013 Rise Set
Actual Time 6:34 AM CDT 9:09 PM CDT
Civil Twilight 6:01 AM CDT 9:42 PM CDT
Nautical Twilight 5:19 AM CDT 10:24 PM CDT
Astronomical Twilight 4:32 AM CDT 11:11 PM CDT
Moon 6:21 AM CDT (5/9) 9:06 PM CDT (5/9)
Length of Visible Light 15h 41m
Length of Day
14h 35m
Waning Crescent, 0% of the Moon is Illuminated
May 9
Waning Crescent
May 9
New
May 17
First Quarter
May 24
Full
May 31
Last Quarter

Hourly Weather History & Observations

Time (CDT) Temp. Windchill Dew Point Humidity Pressure Visibility Wind Dir Wind Speed Gust Speed Precip Events Conditions
12:55 AM 44.6 °F 39.2 °F 35.6 °F 71% 30.15 in 10.0 mi ESE 10.4 mph - N/A   Clear
1:35 AM 44.6 °F 41.4 °F 35.6 °F 71% 30.15 in 10.0 mi SE 5.8 mph - N/A   Clear
1:55 AM 44.6 °F 41.4 °F 35.6 °F 71% 30.15 in 10.0 mi ESE 5.8 mph - N/A   Clear
2:15 AM 42.8 °F 39.3 °F 35.6 °F 76% 30.15 in 10.0 mi SE 5.8 mph - N/A   Clear
2:35 AM 44.6 °F 43.1 °F 35.6 °F 71% 30.14 in 10.0 mi ESE 3.5 mph - N/A   Clear
3:15 AM 41.0 °F 38.0 °F 35.6 °F 81% 30.14 in 10.0 mi SE 4.6 mph - N/A   Clear
4:15 AM 41.0 °F 39.0 °F 35.6 °F 81% 30.15 in 10.0 mi SSW 3.5 mph - N/A   Clear
4:55 AM 39.2 °F 37.0 °F 35.6 °F 87% 30.16 in 10.0 mi South 3.5 mph - N/A   Clear
5:35 AM 39.2 °F - 35.6 °F 87% 30.17 in 10.0 mi Calm Calm - N/A   Clear
6:55 AM 41.0 °F - 37.4 °F 87% 30.17 in 10.0 mi Calm Calm - N/A   Overcast
7:35 AM 41.0 °F - 39.2 °F 93% 30.18 in 10.0 mi Calm Calm - N/A   Partly Cloudy
7:55 AM 42.8 °F 41.1 °F 39.2 °F 87% 30.18 in 10.0 mi ESE 3.5 mph - N/A   Clear
8:55 AM 44.6 °F 43.1 °F 39.2 °F 81% 30.19 in 10.0 mi ENE 3.5 mph - N/A   Scattered Clouds
9:15 AM 44.6 °F 42.2 °F 41.0 °F 87% 30.19 in 10.0 mi NNE 4.6 mph - N/A Rain Light Rain
9:35 AM 44.6 °F 43.1 °F 41.0 °F 87% 30.19 in 10.0 mi NNE 3.5 mph - N/A   Clear
9:55 AM 44.6 °F 43.1 °F 41.0 °F 87% 30.19 in 6.0 mi North 3.5 mph - 0.02 in Rain Light Rain
10:15 AM 46.4 °F 42.9 °F 42.8 °F 87% 30.21 in 10.0 mi NNW 6.9 mph - N/A Rain Light Rain
10:35 AM 42.8 °F 37.5 °F 39.2 °F 87% 30.22 in 10.0 mi NE 9.2 mph - N/A   Mostly Cloudy
10:55 AM 42.8 °F 39.3 °F 37.4 °F 81% 30.23 in 10.0 mi NE 5.8 mph - N/A   Overcast
11:15 AM 42.8 °F 40.1 °F 39.2 °F 87% 30.22 in 6.0 mi NE 4.6 mph - N/A Rain Light Rain
11:35 AM 44.6 °F 41.4 °F 39.2 °F 81% 30.22 in 10.0 mi NE 5.8 mph - N/A   Overcast
11:55 AM 44.6 °F 40.2 °F 39.2 °F 81% 30.22 in 10.0 mi ENE 8.1 mph - N/A   Overcast
12:15 PM 44.6 °F 38.1 °F 41.0 °F 87% 30.20 in 10.0 mi SE 13.8 mph - N/A   Mostly Cloudy
12:35 PM 48.2 °F - 42.8 °F 82% 30.19 in 10.0 mi SE 15.0 mph - N/A   Partly Cloudy
12:55 PM 53.6 °F - 42.8 °F 67% 30.18 in 10.0 mi ESE 12.7 mph - N/A   Partly Cloudy
1:15 PM 55.4 °F - 41.0 °F 58% 30.17 in 10.0 mi East 11.5 mph - N/A   Scattered Clouds
1:35 PM 57.2 °F - 41.0 °F 55% 30.17 in 10.0 mi East 11.5 mph - N/A   Partly Cloudy
2:15 PM 59.0 °F - 39.2 °F 48% 30.16 in 10.0 mi East 13.8 mph - N/A   Clear
2:35 PM 57.2 °F - 39.2 °F 51% 30.16 in 10.0 mi East 15.0 mph 21.9 mph N/A   Clear
2:55 PM 57.2 °F - 41.0 °F 55% 30.16 in 10.0 mi ENE 16.1 mph 20.7 mph N/A   Clear
3:15 PM 59.0 °F - 41.0 °F 51% 30.16 in 10.0 mi East 13.8 mph - N/A   Partly Cloudy
3:35 PM 59.0 °F - 41.0 °F 51% 30.16 in 10.0 mi East 13.8 mph - N/A   Mostly Cloudy
3:55 PM 59.0 °F - 41.0 °F 51% 30.15 in 10.0 mi East 13.8 mph - N/A   Scattered Clouds
4:15 PM 59.0 °F - 41.0 °F 51% 30.15 in 10.0 mi East 17.3 mph - N/A   Scattered Clouds
4:35 PM 59.0 °F - 41.0 °F 51% 30.14 in 10.0 mi ESE 13.8 mph 18.4 mph N/A   Scattered Clouds
4:55 PM 59.0 °F - 41.0 °F 51% 30.14 in 10.0 mi East 18.4 mph 21.9 mph N/A   Partly Cloudy
5:15 PM 60.8 °F - 41.0 °F 48% 30.13 in 10.0 mi East 16.1 mph - N/A   Scattered Clouds
5:35 PM 62.6 °F - 41.0 °F 45% 30.13 in 10.0 mi SE 11.5 mph 18.4 mph N/A   Clear
5:55 PM 62.6 °F - 41.0 °F 45% 30.13 in 10.0 mi ESE 16.1 mph - N/A   Clear
6:15 PM 60.8 °F - 41.0 °F 48% 30.13 in 10.0 mi ESE 16.1 mph 21.9 mph N/A   Clear
6:35 PM 59.0 °F - 41.0 °F 51% 30.13 in 10.0 mi East 16.1 mph - N/A   Clear
6:55 PM 59.0 °F - 41.0 °F 51% 30.13 in 10.0 mi ESE 17.3 mph - N/A   Clear
7:15 PM 59.0 °F - 41.0 °F 51% 30.13 in 10.0 mi ESE 13.8 mph - N/A   Clear
7:35 PM 57.2 °F - 41.0 °F 55% 30.13 in 10.0 mi ESE 13.8 mph - N/A   Clear
7:55 PM 55.4 °F - 41.0 °F 58% 30.13 in 10.0 mi ESE 13.8 mph - N/A   Clear
8:15 PM 55.4 °F - 41.0 °F 58% 30.14 in 10.0 mi ESE 10.4 mph - N/A   Clear
8:35 PM 51.8 °F - 41.0 °F 67% 30.15 in 10.0 mi ESE 9.2 mph - N/A   Clear
8:55 PM 50.0 °F - 39.2 °F 66% 30.15 in 10.0 mi ESE 8.1 mph - N/A   Clear
9:15 PM 48.2 °F - 39.2 °F 71% 30.16 in 10.0 mi ESE 5.8 mph - N/A   Clear
9:35 PM 46.4 °F 42.9 °F 39.2 °F 76% 30.16 in 10.0 mi SE 6.9 mph - N/A   Partly Cloudy
9:55 PM 46.4 °F 45.2 °F 39.2 °F 76% 30.17 in 10.0 mi South 3.5 mph - N/A   Scattered Clouds
10:35 PM 46.4 °F 43.5 °F 39.2 °F 76% 30.17 in 10.0 mi SSE 5.8 mph - N/A   Partly Cloudy
10:55 PM 44.6 °F 41.4 °F 39.2 °F 81% 30.17 in 10.0 mi South 5.8 mph - N/A   Clear
11:15 PM 42.8 °F 40.1 °F 39.2 °F 87% 30.17 in 10.0 mi SW 4.6 mph - N/A   Clear
11:35 PM 44.6 °F 43.1 °F 39.2 °F 81% 30.17 in 10.0 mi West 3.5 mph - N/A   Clear
11:55 PM 44.6 °F 42.2 °F 37.4 °F 76% 30.17 in 10.0 mi WSW 4.6 mph - N/A   Clear